Regional Weather Roundup
Issued by NWS Upton, NY

Current Version | Previous Version | Graphics & Text | Print | Product List | Glossary Off
Versions: 1 2 3 4 5 6 7 8 9 10 11 12 13 14 15 16 17 18 19 20 21 22 23 24 25 26 27 28 29 30 31 32 33 34 35 36 37 38 39 40 41 42 43 44 45 46 47 48 49 50

000
ASUS41 KOKX 300308
RWROKX

REGIONAL WEATHER ROUNDUP
NATIONAL WEATHER SERVICE NEW YORK NY
1100 PM EDT FRI MAY 29 2015

NOTE: "FAIR" INDICATES FEW OR NO CLOUDS BELOW 12,000 FEET WITH NO
SIGNIFICANT WEATHER AND/OR OBSTRUCTIONS TO VISIBILITY.

NYZ071-072-176-178-NJZ106-104-300400-
NEW YORK CITY METRO AREA


CITY           SKY/WX    TMP DP  RH WIND       PRES   REMARKS
CENTRAL PARK   PTCLDY    68  59  73 CALM      30.26F
LAGUARDIA APRT MOCLDY    68  60  75 S8        30.23F
KENNEDY INTL   MOCLDY    64  59  83 SE5       30.25S
NEWARK/LIBERTY MOCLDY    70  61  73 CALM      30.23F
BRNX BOT. GARD   N/A     66  59  77 SE2       30.25F
TETERBORO      PTCLDY    68  59  73 S3        30.22F
$$

NYZ177-179-078>081-300400-
LONG ISLAND NEW YORK

CITY           SKY/WX    TMP DP  RH WIND       PRES   REMARKS
FARMINGDALE    PTCLDY    63  59  87 S7        30.25S
ISLIP          FOG       62  59  90 S7        30.24S VSB 1
SHIRLEY        CLOUDY    60  58  92 SE6       30.25F
WESTHAMPTON    FOG       58  57  97 S3        30.27S VSB 1/4
MONTAUK POINT    N/A     59  57  93 VRB3      30.27F
$$

NYZ052-065-067-300400-
HUDSON VALLEY

CITY           SKY/WX    TMP DP  RH WIND       PRES   REMARKS
WHITE PLAINS   PTCLDY    64  58  80 CALM      30.25R
NEWBURGH       NOT AVBL
MONTGOMERY     PTCLDY    66  59  78 S5        30.23R
POUGHKEEPSIE   PTCLDY    71  58  63 S6        30.21S
ALBANY         MOCLDY    74  54  49 S9        30.18S
$$

NJZ001-105-106-008-010-013-015-019>022-104-300400-
NEW JERSEY

CITY           SKY/WX    TMP DP  RH WIND       PRES   REMARKS
NEWARK/LIBERTY MOCLDY    70  61  73 CALM      30.23F
TETERBORO      PTCLDY    68  59  73 S3        30.22F
CALDWELL       CLEAR     66  57  72 CALM      30.24F
MORRISTOWN     PTCLDY    64  57  77 CALM      30.23F
SOMERVILLE     FAIR      69  57  65 SE5       30.20F
SUSSEX         PTCLDY    66  56  70 CALM      30.25R
ANDOVER          N/A     69  56  62 VRB5      30.23S
TRENTON        PTCLDY    70  61  73 S6        30.22F
MILLVILLE      CLEAR     68  64  87 S3        30.24S
ATLANTIC CITY  PTCLDY    68  63  84 S6        30.24F
WRIGHTSTOWN    CLEAR     66  63  89 S6        30.21F
TOMS RIVER     CLEAR    N/A N/A N/A CALM      30.24F
BELMAR         CLEAR     64  57  77 CALM      30.24F
$$

PAZ047>061-062-071-300400-
EASTERN PENNSYLVANIA

CITY           SKY/WX    TMP DP  RH WIND       PRES   REMARKS
PHILADELPHIA   MOCLDY    73  63  70 S5        30.23S
ALLENTOWN      MOCLDY    76  63  64 S5        30.21R
SCRANTON       PTCLDY    75  60  59 S6        30.19F
$$

CTZ002-004>006-009-010-012-RIZ004-006-007-MAZ004-011-015-300400-
SOUTHERN NEW ENGLAND
 IN CT

CITY           SKY/WX    TMP DP  RH WIND       PRES   REMARKS
BRADLEY INTL   PTCLDY    69  57  65 S8        30.23S
HARTFORD       PTCLDY    66  57  72 S7        30.24S
DANBURY        PTCLDY    64  56  75 W3        30.26S
WTRBRY/OXFORD  PTCLDY    63  55  77 CALM      30.26F
BRIDGEPORT     MOCLDY    65  60  84 CALM      30.24F
MERIDEN        PTCLDY    63  57  81 CALM      30.25S
NEW HAVEN      MOCLDY    61  58  90 CALM      30.25S
CHESTER        FAIR      61  59  94 CALM      30.26F
GROTON         MOCLDY    58  56  93 CALM      30.25S
WILLIMANTIC    MOCLDY    63  56  78 CALM      30.26S

 IN RI

CITY           SKY/WX    TMP DP  RH WIND       PRES   REMARKS
PROVIDENCE     CLOUDY    62  58  86 S3        30.26S
BLOCK ISLAND   CLOUDY    57  54  88 S3        30.26F VSB 3/4
WESTERLY       FOG       57  57 100 SE3       30.26F VSB 1/4

 IN MA

CITY           SKY/WX    TMP DP  RH WIND       PRES   REMARKS
BOSTON         CLOUDY    60  56  86 CALM      30.25S
WORCESTER      MOCLDY    66  56  70 S5        30.27S
WESTFIELD      PTCLDY    67  57  70 S7        30.23S
PROVINCETOWN   MOCLDY    61  55  82 S5        30.25F
NANTUCKET      FOG       59  57  93 SE6       30.26F VSB 1/4
$$

ANZ330-335-338-340-345-350-353-355-300400-
COASTAL MARINE OBSERVATIONS


STATION/POSITION TIME  SKY/WX   TEMP    WIND        PRES    VSBY  WAVE
                                AIR SEA DIR/SP/G                  HT/PER
                 (UTC)          (F)     (DEG/KT/KT) (MB)    (MI)  (FT/S)
NY HARB ENTRANCE 0250            62 62  180/  6/  8 1023.9          2/ 9
4S FIRE IS       0203               60                N/A           2/ 8
20S FIRE ISLAND  0250            60 59  180/  6/  8 1024.3          2/ 9
GREAT SOUTH BAY  0200            62 70  180/  6/  8   N/A
23SW MTP         0250            57 57  190/  4/  4 1024.3          2/ 9
HUDSON CANYON    NOT AVBL
KINGS POINT      0200            66 57  190/  5/  7 1023.5
CENTRAL LI SOUND 0230            62 61   90/  2/  2   N/A
EASTERN LI SOUND 0200            56      90/  2/  4   N/A
ROBBINS REEF     0200            63     180/  9/  9 1022.9
$$


>>>>>>>>>>>>>>>>>>>>>>>>>>>> KEY <<<<<<<<<<<<<<<<<<<<<<<<<<<
>                                                          <
>     SKY/WX - SKY CONDITION/PRESENT WEATHER               <
>     TMP    - TEMPERATURE IN FAHRENHEIT                   <
>     DP     - DEWPOINT IN FAHRENHEIT                      <
>     RH     - RELATIVE HUMIDITY IN PERCENT                <
>     WIND   - DIRECTION AND SPEED IN MPH                  <
>     PRES   - MEAN SEA LEVEL PRESSURE IN INCHES OF HG     <
>     WCI    - WIND CHILL INDEX                            <
>     VSB    - VISIBILITY IN MILES                         <
>     HX     - HEAT INDEX                                  <
>     TC     - TEMPERATURE IN CELSIUS                      <
>     VRB    - VARIABLE WIND DIRECTION                     <
>                                                          <
>>>>>>>>>>>>>>>>>>>>>>>>>>>> KEY <<<<<<<<<<<<<<<<<<<<<<<<<<<




USA.gov is the U.S. government's official web portal to all federal, state and local government web resources and services.